ARIANE 2 DEB

基本信息
目录编号:
27602
目录名称:
ARIANE 2 DEB
国际标识:
1989-006AC
轨道中心:
EARTH
物体状态:
在轨
发射日期:
1989-01-27 UTC
轨道信息
数据来源: 国际轨道数据
星历时间: 2026-03-22T19:39:57+0800
半长轴: 24575.157km
偏心率: 0.7068112
轨道倾角: 7.788°
近地点辐角: 216.269°
升交点赤经: 16.698°
平近点角: 328.504°
近地点: 827.023km
远地点: 35567.017km
周期: 639.005分钟
每日圈数: 2.253504
详细信息
发射场:
FRGUI
轨道高度:
LEO
数据来源:
AOE Integration Group
参考系:
TEME
时间系统:
UTC
历元类型:
SGP4
2D轨道图
3D轨道图
轨道高度分析图
轨道倾角分析图
轨道综合分析图
查看轨道综合分析图